DateTimeUTC,F1_A11,F1_S11,BsB_S11,BsG_S11,BsR_S11,BbsB_S11,BbsG_S11,BbsR_S11,BaB_A11,BaG_A11,BaR_A11,Tu_S11,T_S11,Uu_S11,U_S11,P_S11,T1_A11
2021-07-11T00:00:00Z,00000200,20000000,,,,,,,0000.04,0000.26,-000.08,18.8,25.4,10.8,07.2,0676.6,31.1
2021-07-11T00:01:00Z,00000200,20000000,,,,,,,0000.00,0000.03,0000.05,18.8,25.4,10.8,07.2,0676.6,31.1
2021-07-11T00:02:00Z,00000200,20000000,,,,,,,0000.26,0000.30,0000.31,18.8,25.4,10.8,07.2,0676.6,31.1
2021-07-11T00:03:00Z,00000200,60000000,,,,,,,-000.12,-000.00,0000.27,18.8,25.5,10.8,07.2,0676.6,31.0
2021-07-11T00:04:00Z,00000200,40000000,0000.45,0000.35,0000.14,0000.00,0000.10,0000.56,0000.35,0000.38,-000.29,18.9,25.3,11.2,07.6,0677.5,31.0
2021-07-11T00:05:00Z,00000200,00000000,-000.48,0000.35,0000.16,0000.10,0000.10,0000.20,-000.21,-000.01,0000.26,18.9,25.2,11.3,07.7,0677.6,31.0
2021-07-11T00:06:00Z,00000200,00000000,0000.73,0000.46,-000.02,0000.03,0000.10,0000.20,0000.20,0000.01,0000.04,18.9,25.2,11.3,07.7,0677.6,31.0
2021-07-11T00:07:00Z,00000200,00000000,0000.64,0000.75,0000.15,0000.52,-000.01,0000.29,-000.05,-000.09,-000.18,18.9,25.2,11.2,07.6,0677.6,31.1
2021-07-11T00:08:00Z,00000200,00000000,0000.48,0000.60,0000.27,0000.04,0000.24,0000.19,-000.17,-000.05,0000.11,18.9,25.2,11.3,07.7,0677.6,31.0
2021-07-11T00:09:00Z,00000200,00000000,0000.24,0000.59,0000.21,0000.25,-000.13,0000.08,0000.13,-000.17,0000.20,18.9,25.2,11.3,07.7,0677.6,31.0
2021-07-11T00:10:00Z,00000200,00000000,0000.45,0000.42,-000.16,0001.10,0000.16,0000.05,-000.01,-000.03,-000.44,18.9,25.2,11.2,07.6,0677.7,31.0
2021-07-11T00:11:00Z,00000200,00000000,0000.60,0000.01,0000.29,0000.32,0000.05,0000.09,-000.11,0000.29,0000.06,18.9,25.2,11.0,07.5,0677.7,31.1
2021-07-11T00:12:00Z,00000200,00000000,0000.60,0000.42,0000.29,0000.38,0000.10,0000.31,-000.06,-000.37,-000.07,18.9,25.2,11.0,07.5,0677.7,31.0
2021-07-11T00:13:00Z,00000200,00000000,0000.65,0000.60,-000.05,0000.33,-000.09,-000.04,-000.00,-000.04,-000.11,18.9,25.2,10.9,07.4,0677.7,31.0
2021-07-11T00:14:00Z,00000200,00000000,0000.40,0000.28,-000.02,0000.55,-000.11,0000.16,0000.18,0000.26,0000.50,18.9,25.2,11.1,07.5,0677.7,31.0
2021-07-11T00:15:00Z,00000200,00000000,0000.84,0000.29,-000.09,0000.19,-000.01,0000.09,-000.03,-000.16,-000.28,18.9,25.2,11.0,07.5,0677.7,31.0
2021-07-11T00:16:00Z,00000200,00000000,0000.45,0000.26,-000.00,0000.29,-000.06,0000.22,-000.16,0000.01,0000.15,18.9,25.2,11.0,07.5,0677.7,31.0
2021-07-11T00:17:00Z,00000200,00000000,0000.62,0000.15,0000.20,0000.29,0000.23,0000.17,0000.15,-000.10,-000.29,18.9,25.2,10.9,07.4,0677.7,31.0
2021-07-11T00:18:00Z,00000200,00000000,-000.57,0000.31,0000.20,0000.52,0000.08,-000.18,0000.04,0000.34,0000.30,18.9,25.1,11.0,07.5,0677.7,31.0
2021-07-11T00:19:00Z,00000200,00000000,0000.37,0000.19,0000.17,0000.19,0000.12,0000.13,0000.09,-000.38,-000.26,18.9,25.1,10.9,07.5,0677.7,31.0
2021-07-11T00:20:00Z,00000200,00000000,0000.82,0000.07,0000.14,0000.68,-000.01,-000.07,0000.11,-000.03,0000.47,18.9,25.1,11.0,07.5,0677.7,31.0
2021-07-11T00:21:00Z,00000200,00000000,0000.24,0000.27,0000.12,0000.19,-000.19,0000.22,-000.03,0000.52,0000.03,18.9,25.1,11.0,07.5,0677.7,31.0
2021-07-11T00:22:00Z,00000200,00000000,0000.72,0000.31,0000.11,0000.17,0000.05,-000.18,-000.09,-000.33,0000.14,18.9,25.1,10.9,07.5,0677.7,31.0
2021-07-11T00:23:00Z,00000200,00000000,0000.71,0000.54,0000.30,0000.03,-000.30,0000.23,0000.03,0000.07,-000.22,18.9,25.1,10.9,07.4,0677.6,31.0
2021-07-11T00:24:00Z,00000200,00000000,-000.51,0000.29,0000.18,0000.16,-000.26,0000.24,0000.09,-000.06,-000.21,18.9,25.1,10.9,07.5,0677.6,31.0
2021-07-11T00:25:00Z,00000200,00000000,-000.44,0000.43,0000.33,0000.48,0000.10,0000.08,-000.19,0000.21,0000.25,18.9,25.1,10.9,07.5,0677.6,31.0
2021-07-11T00:26:00Z,00000200,00000000,0000.65,0000.39,-000.03,-000.23,0000.08,0000.16,0000.49,0000.06,0000.07,18.9,25.1,11.0,07.5,0677.6,31.0
2021-07-11T00:27:00Z,00000200,00000000,0000.55,0000.31,0000.19,0000.70,0000.15,0000.17,0000.04,-000.24,-000.03,18.9,25.1,11.1,07.6,0677.6,31.0
2021-07-11T00:28:00Z,00000200,00000000,0000.70,0000.40,0000.34,0000.27,0000.21,0000.08,-000.28,0000.43,0000.33,18.9,25.1,11.1,07.6,0677.6,31.0
2021-07-11T00:29:00Z,00000200,00000000,0000.21,0000.12,0000.09,-000.26,-000.01,-000.17,0000.42,-000.06,-000.30,18.9,25.1,11.2,07.6,0677.7,31.0
2021-07-11T00:30:00Z,00000200,00000000,0000.04,0000.02,0000.14,0000.39,0000.01,0000.45,-000.13,0000.06,0000.08,18.9,25.1,11.1,07.6,0677.7,31.0
2021-07-11T00:31:00Z,00000200,00000000,-000.14,0000.59,-000.04,0000.37,0000.14,-000.14,0000.12,0000.06,0000.15,18.9,25.1,11.2,07.6,0677.7,31.0
2021-07-11T00:32:00Z,00000200,00000000,0000.21,0000.28,0000.33,0000.19,-000.04,0000.11,-000.02,0000.09,0000.15,18.9,25.1,11.3,07.7,0677.7,31.0
2021-07-11T00:33:00Z,00000200,00000000,0000.67,0000.65,0000.24,0000.38,-000.02,0000.09,-000.03,0000.02,-000.04,18.9,25.1,11.4,07.8,0677.7,31.0
2021-07-11T00:34:00Z,00000200,00000000,-000.34,0000.43,0000.33,0000.14,0000.03,0000.12,0000.02,-000.04,-000.11,18.9,25.1,11.3,07.8,0677.7,31.0
2021-07-11T00:35:00Z,00000200,00000000,0001.56,0000.31,0000.17,0000.23,-000.01,0000.41,0000.10,-000.18,0000.15,18.9,25.1,11.4,07.8,0677.7,31.0
2021-07-11T00:36:00Z,00000200,00000000,0000.35,0000.43,-000.01,-000.02,0000.40,0000.07,0000.23,0000.49,-000.23,18.9,25.1,11.4,07.8,0677.7,31.0
2021-07-11T00:37:00Z,00000200,00000000,0000.11,0000.90,0000.05,-000.82,-000.15,0000.07,0000.11,0000.05,0000.19,18.9,25.1,11.5,07.9,0677.6,31.0
2021-07-11T00:38:00Z,00000200,00000000,0000.60,0000.19,0000.15,0000.16,-000.14,0000.07,-000.09,0000.01,0000.18,18.9,25.1,11.5,07.9,0677.6,31.0
2021-07-11T00:39:00Z,00000200,00000000,0001.11,0000.41,0000.34,-000.08,0000.15,0000.17,-000.13,0000.11,-000.11,18.9,25.1,11.4,07.8,0677.6,31.0
2021-07-11T00:40:00Z,00000200,00000000,0000.80,0000.32,0000.35,0000.23,-000.09,0000.36,0000.17,0000.07,-000.07,18.9,25.1,11.5,07.9,0677.6,31.0
2021-07-11T00:41:00Z,00000200,00000000,0000.46,0000.47,0000.37,0000.47,0000.19,0000.20,0000.10,-000.09,0000.20,18.9,25.1,11.5,07.9,0677.6,31.0
2021-07-11T00:42:00Z,00000200,00000000,0000.53,0000.41,0000.24,0000.41,0000.13,0000.00,0000.07,-000.08,0000.07,18.9,25.1,11.5,07.9,0677.6,31.0
2021-07-11T00:43:00Z,00000200,00000000,0000.77,0000.35,0000.08,0000.17,-000.21,0000.26,0000.17,0000.37,0000.14,18.8,25.1,11.6,08.0,0677.6,31.0
2021-07-11T00:44:00Z,00000200,00000000,0001.06,0000.30,0000.27,0000.72,0000.12,0000.30,-000.02,-000.32,0000.00,18.8,25.0,11.7,08.0,0677.5,31.0
2021-07-11T00:45:00Z,00000200,00000000,0000.44,0000.70,0000.29,0000.60,-000.00,0000.15,-000.16,0000.36,-000.25,18.8,25.0,11.7,08.0,0677.6,31.0
2021-07-11T00:46:00Z,00000200,00000000,0000.70,0000.38,0000.11,0000.58,0000.02,0000.23,0000.08,-000.36,0000.29,18.8,25.0,11.6,07.9,0677.6,31.0
2021-07-11T00:47:00Z,00000200,00000000,0000.52,0000.50,0000.43,0000.52,-000.08,0000.24,-000.10,0000.03,-000.20,18.8,25.1,11.5,07.9,0677.6,31.0
2021-07-11T00:48:00Z,00000200,00000000,0000.55,0000.60,0000.30,0000.11,-000.09,-000.24,-000.05,0000.07,-000.02,18.8,25.0,11.8,08.1,0677.6,31.0
2021-07-11T00:49:00Z,00000200,00000000,0000.65,0000.59,0000.15,0000.38,0000.01,-000.03,0000.16,-000.04,0000.17,18.8,25.0,11.7,08.0,0677.6,31.0
2021-07-11T00:50:00Z,00000200,00000000,0001.07,0000.49,0000.23,0000.45,-000.05,0000.37,0000.23,-000.06,-000.01,18.8,25.0,11.7,08.0,0677.6,31.0
2021-07-11T00:51:00Z,00000200,00000000,0000.11,0000.29,0000.07,0000.12,-000.02,0000.11,-000.16,0000.10,-000.16,18.8,25.0,11.6,07.9,0677.6,31.0
2021-07-11T00:52:00Z,00000200,00000000,0000.46,0000.33,0000.40,0000.12,0000.28,0000.31,-000.05,-000.20,0000.28,18.8,25.0,11.6,07.9,0677.6,31.0
2021-07-11T00:53:00Z,00000200,00000000,0001.01,0000.60,0000.36,0000.53,0000.24,0000.12,0000.32,0000.59,0000.02,18.8,25.0,11.6,07.9,0677.6,31.0
2021-07-11T00:54:00Z,00000200,00000000,0000.40,0000.35,0000.35,0000.10,0000.17,0000.16,0000.05,-000.18,0000.18,18.8,25.0,11.4,07.8,0677.6,31.0
2021-07-11T00:55:00Z,00000200,00000000,0000.71,0000.73,0000.31,0000.87,-000.17,0000.15,-000.10,0000.19,-000.09,18.8,25.0,11.5,07.9,0677.6,31.0
2021-07-11T00:56:00Z,00000200,00000000,0000.57,0000.22,0000.31,0000.48,0000.00,0000.26,0000.04,-000.07,0000.14,18.8,25.0,11.6,07.9,0677.6,31.0
2021-07-11T00:57:00Z,00000200,40000000,,,,,,,-000.30,-000.18,-000.27,18.8,25.0,11.5,07.9,0677.6,31.0
2021-07-11T00:58:00Z,00000200,60000000,,,,,,,0000.15,0000.13,-000.10,18.6,25.1,11.7,07.8,0676.6,31.0
2021-07-11T00:59:00Z,00000200,20000000,,,,,,,-000.09,-000.23,0000.33,18.6,25.2,11.7,07.8,0676.6,31.0
